timestamp,surface_pressure_avg,surface_temp_avg,battery_voltage,lat,long
2022-08-29 00:09:01+00:00,350.2847,20.0,11.53,47.84626,-54.09684
2022-08-29 00:19:00+00:00,351.033,20.04,11.53,47.84626,-54.09684
2022-08-29 00:29:00+00:00,352.7263,19.79,11.53,47.84626,-54.09684
2022-08-29 00:39:00+00:00,357.9913,19.7,11.53,47.84626,-54.09684
2022-08-29 00:49:00+00:00,358.75300000000016,19.76,11.53,47.84626,-54.09684
2022-08-29 00:59:00+00:00,354.2346,19.79,11.53,47.84626,-54.09684
2022-08-29 01:09:00+00:00,353.2396,19.8,11.53,47.84626,-54.09684
2022-08-29 01:19:00+00:00,355.8179,19.77,11.53,47.84626,-54.09684
2022-08-29 01:29:00+00:00,352.6547,19.77,11.53,47.84626,-54.09684
2022-08-29 01:39:00+00:00,345.338,19.78,11.53,47.84626,-54.09684
2022-08-29 01:49:00+00:00,341.1913,19.78,11.53,47.84626,-54.09684
2022-08-29 01:59:00+00:00,338.8712,19.79,11.53,47.84626,-54.09684
2022-08-29 02:09:00+00:00,331.4197,19.79,11.53,47.84626,-54.09684
2022-08-29 02:19:00+00:00,326.3263,19.8,11.53,47.84626,-54.09684
2022-08-29 02:29:00+00:00,325.7163,19.8,11.53,47.84626,-54.09684
2022-08-29 02:39:00+00:00,321.4263,19.8,11.53,47.84626,-54.09684
2022-08-29 02:49:00+00:00,308.5714,19.8,11.53,47.84626,-54.09684
2022-08-29 02:59:00+00:00,302.0646,19.8,11.53,47.84626,-54.09684
2022-08-29 03:09:00+00:00,301.1348,19.8,11.53,47.84626,-54.09684
2022-08-29 03:19:01+00:00,295.3931,19.8,11.53,47.84626,-54.09684
2022-08-29 03:29:01+00:00,283.8047,19.8,11.53,47.84626,-54.09684
2022-08-29 03:39:01+00:00,277.9363,19.8,11.53,47.84626,-54.09684
2022-08-29 03:49:01+00:00,272.8914,19.8,11.53,47.84626,-54.09684
2022-08-29 03:59:01+00:00,263.5481,19.8,11.53,47.84626,-54.09684
2022-08-29 04:09:01+00:00,251.4231,19.8,11.53,47.84626,-54.09684
2022-08-29 04:19:00+00:00,243.8831,19.8,11.53,47.84626,-54.09684
2022-08-29 04:29:00+00:00,236.4131,19.8,11.53,47.84626,-54.09684
2022-08-29 04:39:00+00:00,228.9064,19.8,11.53,47.84626,-54.09684
2022-08-29 04:49:00+00:00,221.1748,19.8,11.53,47.84626,-54.09684
2022-08-29 04:59:00+00:00,212.9114,19.8,11.53,47.84626,-54.09684
2022-08-29 05:09:00+00:00,205.3897,19.8,11.53,47.84626,-54.09684
2022-08-29 05:19:01+00:00,200.3615,19.8,11.53,47.84626,-54.09684
2022-08-29 05:29:01+00:00,194.0465,19.81,11.53,47.84626,-54.09684
2022-08-29 05:39:01+00:00,187.3498,19.82,11.53,47.84626,-54.09684
2022-08-29 05:49:01+00:00,183.6765,19.8,11.53,47.84626,-54.09684
2022-08-29 05:59:01+00:00,181.7881,19.8,11.53,47.84626,-54.09684
2022-08-29 06:09:01+00:00,177.8065,19.8,11.53,47.84626,-54.09684
2022-08-29 06:19:00+00:00,174.3082,19.8,11.53,47.84626,-54.09684
2022-08-29 06:29:00+00:00,173.8765,19.8,11.53,47.84626,-54.09684
2022-08-29 06:39:00+00:00,172.7415,19.82,11.53,47.84626,-54.09684
2022-08-29 06:49:00+00:00,172.0464,19.9,11.53,47.84626,-54.09684
2022-08-29 06:59:00+00:00,175.7348,19.94,11.53,47.84626,-54.09684
2022-08-29 07:09:00+00:00,179.3598,20.0,11.53,47.84626,-54.09684
2022-08-29 07:19:01+00:00,180.7931,20.0,11.46,47.84626,-54.09684
2022-08-29 07:29:01+00:00,184.1148,20.0,11.46,47.84626,-54.09684
2022-08-29 07:39:01+00:00,189.3248,20.0,11.46,47.84626,-54.09684
2022-08-29 07:49:01+00:00,193.1914,20.0,11.46,47.84626,-54.09684
2022-08-29 07:59:01+00:00,194.1365,20.01,11.46,47.84626,-54.09684
2022-08-29 08:09:01+00:00,199.1414,20.0,11.46,47.84626,-54.09684
2022-08-29 08:19:01+00:00,206.2581,20.0,11.46,47.84626,-54.09684
2022-08-29 08:29:01+00:00,209.4331,19.97,11.46,47.84626,-54.09684
2022-08-29 08:39:01+00:00,213.0831,19.91,11.46,47.84626,-54.09684
2022-08-29 08:49:01+00:00,219.8031,19.9,11.46,47.84626,-54.09684
2022-08-29 08:59:01+00:00,225.4598,19.9,11.46,47.84626,-54.09684
2022-08-29 09:09:01+00:00,229.6448,19.9,11.46,47.84626,-54.09684
2022-08-29 09:19:00+00:00,233.7531,19.93,11.46,47.84626,-54.09684
2022-08-29 09:29:00+00:00,241.3131,19.96,11.46,47.84626,-54.09684
2022-08-29 09:39:00+00:00,245.8347,19.9,11.46,47.84626,-54.09684
2022-08-29 09:49:00+00:00,250.0948,19.9,11.46,47.84626,-54.09684
2022-08-29 09:59:00+00:00,257.368,19.9,11.46,47.84626,-54.09684
2022-08-29 10:09:00+00:00,263.4147,19.9,11.46,47.84626,-54.09684
2022-08-29 10:19:00+00:00,267.9964,19.9,11.53,47.84626,-54.09684
2022-08-29 10:29:00+00:00,273.5914,19.9,11.53,47.84626,-54.09684
2022-08-29 10:39:00+00:00,279.5914,19.8,11.53,47.84626,-54.09684
2022-08-29 10:49:00+00:00,284.2347,19.8,11.53,47.84626,-54.09684
2022-08-29 10:59:00+00:00,290.6664,19.8,11.53,47.84626,-54.09684
2022-08-29 11:09:00+00:00,299.8763,19.78,11.53,47.84626,-54.09684
2022-08-29 11:19:01+00:00,306.9581,19.77,11.53,47.84626,-54.09684
2022-08-29 11:29:01+00:00,312.6696,19.76,11.53,47.84626,-54.09684
2022-08-29 11:39:01+00:00,318.7498,19.75,11.53,47.84626,-54.09684
2022-08-29 11:49:01+00:00,329.3896,19.77,11.53,47.84626,-54.09684
2022-08-29 11:59:01+00:00,334.6679,19.77,11.53,47.84626,-54.09684
2022-08-29 12:09:01+00:00,339.4430000000001,19.78,11.53,47.84626,-54.09684
2022-08-29 12:19:00+00:00,346.8279,19.79,11.61,47.84626,-54.09684
2022-08-29 12:29:00+00:00,353.1912,19.79,11.61,47.84626,-54.09684
2022-08-29 12:39:00+00:00,350.94300000000015,19.8,11.61,47.84626,-54.09684
2022-08-29 12:49:00+00:00,351.9396,19.8,11.61,47.84626,-54.09684
2022-08-29 12:59:00+00:00,357.2829,19.8,11.61,47.84626,-54.09684
2022-08-29 13:09:00+00:00,355.0446,19.8,11.61,47.84626,-54.09684
2022-08-29 13:19:00+00:00,351.8929,19.8,11.7,47.84626,-54.09684
2022-08-29 13:29:00+00:00,353.55800000000005,19.8,11.7,47.84626,-54.09684
2022-08-29 13:39:00+00:00,352.6163,19.8,11.7,47.84626,-54.09684
2022-08-29 13:49:00+00:00,344.608,19.82,11.7,47.84626,-54.09684
2022-08-29 13:59:00+00:00,342.2079,19.85,11.7,47.84626,-54.09684
2022-08-29 14:09:00+00:00,342.8563,19.87,11.7,47.84626,-54.09684
2022-08-29 14:19:01+00:00,338.408,19.89,11.77,47.84626,-54.09684
2022-08-29 14:29:01+00:00,330.7729,19.89,11.77,47.84626,-54.09684
2022-08-29 14:39:01+00:00,326.6813,19.89,11.77,47.84626,-54.09684
2022-08-29 14:49:01+00:00,323.0696,19.89,11.77,47.84626,-54.09684
2022-08-29 14:59:01+00:00,316.7679,19.89,11.77,47.84626,-54.09684
2022-08-29 15:09:01+00:00,310.9496,19.89,11.77,47.84626,-54.09684
2022-08-29 15:19:01+00:00,304.9963,19.9,11.77,47.84626,-54.09684
2022-08-29 15:29:01+00:00,298.5598,19.9,11.77,47.84626,-54.09684
2022-08-29 15:39:01+00:00,293.6697,19.9,11.77,47.84626,-54.09684
2022-08-29 15:49:01+00:00,286.3231,19.9,11.77,47.84626,-54.09684
2022-08-29 15:59:01+00:00,276.5814,19.9,11.77,47.84626,-54.09684
2022-08-29 16:09:01+00:00,270.4564,19.9,11.77,47.84626,-54.09684
2022-08-29 16:19:00+00:00,265.803,19.9,11.77,47.84626,-54.09684
2022-08-29 16:29:00+00:00,255.2897,19.9,11.77,47.84626,-54.09684
2022-08-29 16:39:00+00:00,246.4831,19.94,11.77,47.84626,-54.09684
2022-08-29 16:49:00+00:00,242.2181,19.97,11.77,47.84626,-54.09684
2022-08-29 16:59:00+00:00,235.0148,19.94,11.77,47.84626,-54.09684
2022-08-29 17:09:00+00:00,224.5931,19.9,11.77,47.84626,-54.09684
2022-08-29 17:19:01+00:00,220.2365,19.9,11.7,47.84626,-54.09684
2022-08-29 17:29:01+00:00,217.0397,19.9,11.7,47.84626,-54.09684
2022-08-29 17:39:01+00:00,208.4864,19.9,11.7,47.84626,-54.09684
2022-08-29 17:49:01+00:00,202.4248,19.89,11.7,47.84626,-54.09684
2022-08-29 17:59:01+00:00,200.1664,19.88,11.7,47.84626,-54.09684
2022-08-29 18:09:01+00:00,192.5215,19.86,11.7,47.84626,-54.09684
2022-08-29 18:19:01+00:00,188.1681,19.84,11.7,47.84626,-54.09684
2022-08-29 18:29:01+00:00,187.8114,19.82,11.7,47.84626,-54.09684
2022-08-29 18:39:01+00:00,184.4914,19.81,11.7,47.84626,-54.09684
2022-08-29 18:49:01+00:00,182.5665,19.8,11.7,47.84626,-54.09684
2022-08-29 18:59:01+00:00,181.6031,19.82,11.7,47.84626,-54.09684
2022-08-29 19:09:01+00:00,181.3548,19.82,11.7,47.84626,-54.09684
2022-08-29 19:19:00+00:00,180.7881,19.85,11.7,47.84626,-54.09684
2022-08-29 19:29:00+00:00,181.3599,19.89,11.7,47.84626,-54.09684
2022-08-29 19:39:00+00:00,185.4631,19.92,11.7,47.84626,-54.09684
2022-08-29 19:49:00+00:00,188.7631,20.0,11.7,47.84626,-54.09684
2022-08-29 19:59:00+00:00,192.8148,20.09,11.7,47.84626,-54.09684
2022-08-29 20:09:00+00:00,200.7482,20.1,11.7,47.84626,-54.09684
2022-08-29 20:19:00+00:00,206.8115,20.1,11.61,47.84626,-54.09684
2022-08-29 20:29:00+00:00,210.3981,20.16,11.61,47.84626,-54.09684
2022-08-29 20:39:00+00:00,215.4614,20.18,11.61,47.84626,-54.09684
2022-08-29 20:49:00+00:00,220.5381,20.19,11.61,47.84626,-54.09684
2022-08-29 20:59:00+00:00,224.7947,20.19,11.61,47.84626,-54.09684
2022-08-29 21:09:00+00:00,229.2764,20.19,11.61,47.84626,-54.09684
2022-08-29 21:19:01+00:00,231.3114,20.19,11.61,47.84626,-54.09684
2022-08-29 21:29:01+00:00,236.3581,20.19,11.61,47.84626,-54.09684
2022-08-29 21:39:01+00:00,243.6747,20.18,11.61,47.84626,-54.09684
2022-08-29 21:49:01+00:00,251.3364,20.13,11.61,47.84626,-54.09684
2022-08-29 21:59:01+00:00,257.4998,20.1,11.61,47.84626,-54.09684
2022-08-29 22:09:01+00:00,263.803,20.04,11.61,47.84626,-54.09684
2022-08-29 22:19:00+00:00,269.8547,20.0,11.61,47.84626,-54.09684
2022-08-29 22:29:00+00:00,275.8131,20.0,11.61,47.84626,-54.09684
2022-08-29 22:39:00+00:00,281.8331,19.9,11.61,47.84626,-54.09684
2022-08-29 22:49:00+00:00,287.8613,19.9,11.61,47.84626,-54.09684
2022-08-29 22:59:00+00:00,293.303,19.9,11.61,47.84626,-54.09684
2022-08-29 23:09:00+00:00,298.9797,19.9,11.61,47.84626,-54.09684
2022-08-29 23:19:01+00:00,305.863,19.9,11.53,47.84626,-54.09684
2022-08-29 23:29:01+00:00,315.6663,19.9,11.53,47.84626,-54.09684
2022-08-29 23:39:01+00:00,323.718,19.92,11.53,47.84626,-54.09684
2022-08-29 23:49:01+00:00,329.5046,19.95,11.53,47.84626,-54.09684
2022-08-29 23:59:01+00:00,335.208,19.96,11.53,47.84626,-54.09684
